Powrót do katalogu

BREEZE-M DEB

LostHEO
NORAD 38638·DEBRIS·🇷🇺 Russia

Wystrzelony Mar 14, 2008 z Baikonur Cosmodrome

Loading…

Następne Przeloty (najbliższe 24 godziny)

TLE

NieaktualneSource: Space-Track

Epoka: Dec 6, 2015, 19:28 UTC

1 38638U 08011CM  15340.81164422  .00001692  00000-0  54234-2 0  9997
2 38638  48.6651 196.9694 6498491 206.7713  95.0822  3.16835269 52625

Śledź BREEZE-M DEB w czasie rzeczywistym z AllMySat

Download on the App Store